Flag for Argentina Weather past 2 weeks in Mendoza, Mendoza, Argentina

Now
45 °F

Clear.


Feels Like: 45 °F
Forecast: 37 / 64 °F
Wind: No wind

Location: Mendoza Aerodrome

Current Time: Jul 2, 2015 at 1:06:42 AM

Latest Report: Jul 2, 2015 at 12:00 AM


Visibility: 10 mi

Pressure: 30.01 "Hg

Humidity: 61%

Dew point: 32 °F

Location of MendozaLocation

Historic Weather in Mendoza — Graph

°F

Mendoza temperature yesterday

Maximum temperature yesterday: 63 °F (at 3:00 PM)
Minimum temperature yesterday: 41 °F (at 5:00 AM)
Average temperature yesterday: 51 °F

Past Weeks' High & Low Weather Summary

 TemperatureHumidityPressure
High72 °F (Jun 29, 5:00 PM)93% (Jun 26, 4:00 AM)30.45 "Hg (Jun 26, 4:00 AM)
Low30 °F (Jun 24, 8:00 AM)14% (Jun 29, 5:00 PM)29.89 "Hg (Jun 19, 6:00 PM)
Average48 °F52%30.10 "Hg
* Reported Midnight between Jun 16 and Jun 17 — Midnight between Jul 1 and Jul 2, Mendoza, Weather by CustomWeather, © 2015

Note: Actual official high and low records may vary slightly from our data, if they occured in-between our weather recording intervals... More about our weather records

Advertising

Mendoza weather history for previous 24 hours

 ConditionsComfort  
Time TempWeatherWind HumidityBarometerVisibility
12:00 AM
Thu, Jul 2
45 °FClear.No wind61%30.01 "Hg10 mi
11:00 PM
Wed, Jul 1
46 °FClear.No wind57%30.01 "Hg10 mi
10:00 PM48 °FClear.5 mph54%30.01 "Hg10 mi
9:00 PM50 °FClear.No wind47%30.01 "Hg10 mi
8:00 PM54 °FClear.2 mph41%30.01 "Hg10 mi
7:00 PM55 °FClear.2 mph36%N/A10 mi
6:00 PM61 °FClear.3 mph27%29.98 "Hg10 mi
5:00 PM63 °FSunny.3 mph22%29.95 "Hg10 mi
4:00 PM63 °FSunny.3 mph25%29.95 "Hg10 mi
3:00 PM63 °FSunny.6 mph24%29.98 "Hg10 mi
2:00 PM61 °FSunny.3 mph27%30.01 "Hg10 mi
1:00 PM59 °FSunny.6 mph29%30.04 "Hg10 mi
12:00 PM59 °FSunny.2 mph31%30.04 "Hg10 mi
11:00 AM54 °FSunny.No wind38%30.07 "Hg10 mi
10:00 AM48 °FSunny.2 mph58%30.07 "Hg10 mi
9:00 AM43 °FSunny.3 mph53%30.04 "Hg10 mi
8:00 AM43 °FSunny.2 mph53%30.04 "Hg10 mi
7:00 AM45 °FClear.2 mph46%30.04 "Hg10 mi
6:00 AM45 °FClear.2 mph49%30.04 "Hg10 mi
5:00 AM41 °FClear.No wind70%30.07 "Hg10 mi
4:00 AM43 °FClear.No wind61%30.07 "Hg10 mi
3:00 AM43 °FClear.No wind57%30.09 "Hg10 mi
2:00 AM46 °FClear.No wind53%30.09 "Hg10 mi
1:00 AM48 °FClear.No wind46%30.12 "Hg10 mi
Weather by CustomWeather, © 2015

See weather overviewHow to use our weather pages